Location: Unspecified
(0.0000°N, 0.0000°E)
Time: 22:58:39
(UTC+00:00)

Diapason D-1A - Visible Passes

Search period start: 14 April 2024 00:00
Search period end: 24 April 2024 00:00
Orbit: 497 x 2326 km, 34.1° (Epoch: 14 April)

Date Brightness Start Highest point End Pass type
(mag) Time Alt. Az. Time Alt. Az. Time Alt. Az.
14 Apr 7.5 04:38:08 49° WNW 04:39:13 73° SW 04:44:42 10° SE visible
14 Apr 11.5 19:02:18 10° WNW 19:09:43 18° NW 19:15:47 10° N visible
15 Apr 10.5 03:26:47 13° E 03:26:47 13° E 03:27:21 10° ESE visible
15 Apr 9.1 05:20:51 13° WSW 05:23:56 24° SSW 05:28:35 10° SSE visible
16 Apr 8.9 04:09:28 31° SSE 04:09:28 31° SSE 04:12:18 10° SE visible
16 Apr 11.6 18:29:13 10° WNW 18:37:14 19° NW 18:43:54 10° N visible
17 Apr 9.2 04:52:05 18° SSW 04:52:17 18° SSW 04:55:42 10° SSE visible
